CZ-4C DEB

Satellite information

Favourite Embed

Satellite Type and Status

DEBRISIN ORBIT

Key statistics

Satellite CZ-4C DEB at a glance.

Uptime

4465

Days in orbit

Revolutions

≈ 13.8

Per day

Orbit

SSO

Sun Synchronous Orbit

Inclination

98.8

Latest

Satellite identification and parameters

Extended collection of information and parameters for CZ-4C DEB.

Object identification

Identified? True

Debris? True

Object name: CZ-4C DEB

International designator: 2013-052E

Object number (NORAD): 43410

Object ID (CCSDS): 43410

Country: PEOPLES REPUBLIC OF CHINA (PRC)

Current information (Y/N): Y

RCS size: SMALL

Orbital parameters

Period: 104.627 minutes

Inclination: 98.7933 deg

SMA: 7355.132 km

Apoapsis: 1155.549 km

Periapsis: 798.445 km

RAAN: 138.7747 deg

Eccentricy: 0.02427585

Argument of periapsis: 185.4863 deg

Mean anomaly: 174.362 deg

Mean motion: 13.76312412 rev/day

Mean motion (dot): 0.00000918 rev/day2

B* drag term: 0.0007903664 1/REarth

Two-line elements (TLE)

Creation date: Dec. 12, 2025, 10:14 a.m.

Reference frame: TEME

Reference center: EARTH

Epoch: Dec. 12, 2025, 5:20 a.m. UTC

TLE line 0: 0 CZ-4C DEB

TLE line 1: 1 43410U 13052E 25346.22272975 .00000918 00000-0 79037-3 0 9996

TLE line 2: 2 43410 98.7933 138.7747 0242758 185.4863 174.3620 13.76312412604815

Live tracking on map

Real-time ground track for satellite CZ-4C DEB.

In-orbit conjunctions

A list of the most updated potential collisions computed for object CZ-4C DEB.

Target Orbit TCA Probability of collision Miss distance Type
COSMOS 951 LEO 2025-05-27 11:14:32 0.0001076325 392.0 (m) PAYLOAD

Associated space launch

CZ-4C DEB was lifted into orbit during the mission ‘Long March 4C | Fengyun-3C’, on board a Long March 4C space rocket.

The launch took place on Sept. 23, 2013, 3:07 a.m. from Launch Complex 9.

For more information about the launch, click the button.

Launch to space Long March 4C | Fengyun-3C
Long March 4C | Fengyun-3C

Agency: N/A

Status: Launch Successful

Launch date: Sept. 23, 2013, 3:07 a.m. UTC

Rocket: Long March 4C

Launch pad: Launch Complex 9

Location: Taiyuan Satellite Launch Center, People's Republic of China

...

Latest news about this satellite

There are no fresh news available about this satellite. Check back as we update our databases every day.


Newsletter sign-up

Weekly statistics, charts and insights to help you stay on top of the space industry.